sat.trackr.live / text

‹ back to catalog

APRIZESAT 8

NORAD 39425 · 2013-066K

PAYLOAD ACTIVE UNKNOWN

§ Identity

Operator
Country
US
Launch date
2013-11-21
Launch site
DLS
Launch vehicle
Mass (kg)
RCS (m²)
0.12

Purposes: tech_demo

External: N2YO · Heavens-Above · Gunter

§ Orbital elements

Epoch: 2026-09-20T02:38:06.726048Z

Period
96.79 min
Inclination
97.8304°
Eccentricity
0.0045172
Mean motion
14.87802529 rev/d
Perigee alt
573.3 km
Apogee alt
636.3 km
Semi-major
6,982.9 km
B*
8.4969e-5
RAAN
209.2960°
Arg perigee
335.3898°
Mean anomaly
24.5163°
Rev number
69,378

§ Raw data

APRIZESAT 81 39425U 13066K   26263.10980007  .00000732  00000+0  84969-4 0  99942 39425  97.8304 209.2960 0045172 335.3898  24.5163 14.87802529693782

JSON: /api/v1/satellites/39425 · /tle

For live sub-satellite position, see the globe view (requires WebGL).

§ Visibility from observer

Set your observer location to see the next 7 days of passes ≥ 10°. The values pass through the URL so the page stays shareable.

No JS? Fill the form by hand. The geolocation button needs JavaScript.

§ Radio — SatNOGS DB

ModeDescriptionDownlinkUplink
GMSK Store and dump 400.553 MHz

1 transmitter · refreshed weekly from db.satnogs.org